Date,TemperatureHighF,TemperatureAvgF,TemperatureLowF,DewpointHighF,DewpointAvgF,DewpointLowF,HumidityHigh,HumidityAvg,HumidityLow,PressureMaxIn,PressureMinIn,WindSpeedMaxMPH,WindSpeedAvgMPH,GustSpeedMaxMPH,PrecipitationSumIn
2013-2-1,59.7,53.9,49.5,38.0,16.7,5.5,62,24,16,25.15,25.08,11,3,0,0.00
2013-2-2,54.8,51.2,49.2,29.1,20.4,13.3,40,30,22,25.19,25.15,11,5,0,0.00
2013-2-3,55.7,49.8,41.9,29.4,20.2,-1.1,45,32,12,25.16,25.05,13,7,0,0.00
2013-2-4,59.9,51.0,42.4,35.0,21.4,8.3,48,31,20,25.13,25.05,15,5,0,0.00
2013-2-5,51.7,44.7,33.9,37.5,22.1,-1.0,92,44,18,25.06,24.98,23,9,0,0.00
2013-2-6,50.4,42.9,36.6,35.7,11.1,-15.2,70,31,8,25.15,25.06,18,8,0,0.00
2013-2-7,41.3,31.9,26.1,34.3,25.2,-1.9,96,81,16,25.11,25.01,17,9,0,0.00
2013-2-8,28.4,26.2,24.8,27.4,25.1,23.2,96,95,92,25.06,24.94,12,2,0,0.00
2013-2-9,36.3,29.8,25.2,26.7,20.4,11.9,92,68,38,25.14,25.06,17,8,0,0.00
2013-2-10,39.4,34.7,30.8,26.9,21.0,13.7,78,58,47,25.14,25.07,18,8,0,0.00
2013-2-11,42.7,36.5,31.9,24.5,21.2,13.4,72,55,36,25.24,25.08,13,6,0,0.00
2013-2-12,48.3,41.5,36.5,33.1,21.0,12.9,60,44,33,25.31,25.24,15,5,0,0.00
2013-2-13,51.4,44.4,37.9,31.0,24.8,19.0,64,46,36,25.27,25.20,18,7,0,0.00
2013-2-14,57.6,48.3,41.1,31.6,24.6,17.0,64,40,23,25.21,25.15,21,7,0,0.00
2013-2-15,61.2,52.8,46.7,30.8,25.9,20.7,53,36,24,25.23,25.19,17,5,0,0.00
2013-2-16,57.5,51.1,45.8,31.2,21.0,13.1,44,31,20,25.19,25.04,20,7,0,0.00
2013-2-17,54.0,46.5,41.7,31.1,22.5,9.6,58,39,22,25.03,24.96,16,7,0,0.00
2013-2-18,48.0,40.4,26.5,37.6,16.4,-17.0,96,49,7,24.99,24.91,18,9,0,0.00
2013-2-19,30.2,25.9,22.2,29.2,24.7,20.7,96,95,94,24.92,24.80,14,1,0,0.00
2013-2-20,32.9,27.6,21.7,31.5,24.8,20.0,96,90,61,25.14,24.85,17,3,0,0.00
2013-2-21,35.4,31.2,25.9,30.8,25.8,11.4,96,82,39,25.21,25.06,22,7,0,0.00
2013-2-22,44.0,39.0,33.8,29.8,21.1,5.7,73,49,29,25.26,25.20,25,9,0,0.00
2013-2-23,40.1,33.8,28.8,38.4,27.9,13.3,97,80,44,25.23,25.11,29,12,0,0.00
2013-2-24,47.4,38.0,29.1,21.5,12.5,2.0,61,36,22,25.26,25.15,29,9,0,0.00
2013-2-25,52.2,43.6,38.3,31.7,12.4,-19.0,61,31,7,25.26,25.15,18,8,0,0.00
2013-2-26,52.1,43.7,35.3,23.5,9.5,-2.8,59,26,15,25.21,25.10,26,11,0,0.00
2013-2-27,55.1,47.6,42.4,29.9,12.2,0.2,59,25,14,25.30,25.21,21,7,0,0.00
2013-2-28,53.3,46.6,41.5,41.8,34.4,22.2,85,63,36,25.38,25.29,18,7,0,0.00